Location: Beekmeers
(50.8953°N, 3.6968°E)
Time: 04:53:20
(UTC+00:00)

COBE Rocket - Pass Details

Date: 23 May 2024
Orbit: 678 x 776 km, 97.1° (Epoch: 19 June)

Event Time Altitude Azimuth Distance (km) Brightness Sun altitude
Rises 02:16:43 0° 8° (N) 3,123 8.3 -10.8°
Reaches altitude 10° 02:19:02 10° 2° (N) 2,213 7.3 -10.6°
Maximum altitude 02:23:39 45° 291° (WNW) 997 4.5 -10.1°
Enters shadow 02:27:53 13° 221° (SW) 2,079 5.6 -9.7°
